Wind_Speed
26 25 24 25 25 26 25 23 25 25 22 20 19 20 20 20 21 23 22 21 21 21 21 21 21 21 21 22 23 23 23 24 25 25 24 24 24 25 26 26 26 27 27 27 27 26 26 26 26 25 23 21 20 20 20 20 20 20 21 21 22 23 22 21 22 22 22 21 21 18 18 18 18 19 21 25 28 28 29 34 38 40 39 38 37
25 24 25 26 25 26 24 22 25 25 19 17 17 18 19 21 22 23 22 21 21 21 20 20 20 21 20 20 22 23 23 24 24 25 25 25 25 25 25 25 26 27 28 28 28 27 27 26 26 26 24 22 21 21 22 22 22 22 21 22 23 23 22 22 22 23 22 21 21 20 20 20 20 20 19 20 24 28 30 31 34 38 40 40 40
26 26 27 27 26 26 24 22 24 24 18 15 16 17 19 21 22 23 23 21 21 21 20 20 20 20 20 20 20 21 22 22 23 24 24 25 25 25 25 25 26 27 27 28 28 28 28 27 27 26 24 23 22 22 23 22 23 23 23 23 23 23 22 22 22 23 23 22 22 21 21 21 21 22 21 19 18 21 27 32 34 35 37 38 40
28 28 29 29 28 25 23 22 23 24 20 16 16 17 19 21 23 23 23 22 22 21 20 21 21 21 20 20 20 21 21 22 22 23 24 24 25 25 25 25 26 26 27 27 28 28 28 28 27 26 24 23 23 23 23 23 24 24 23 24 24 24 23 22 22 22 24 24 24 23 22 22 22 22 22 21 18 17 19 26 31 34 36 36 37
30 29 29 29 25 21 21 21 22 24 21 16 15 17 20 22 23 24 24 24 23 21 21 21 21 21 20 20 20 21 21 22 22 23 24 24 24 24 24 25 25 25 26 26 27 27 27 27 27 26 25 23 23 23 23 24 24 24 24 25 25 25 24 22 22 22 23 25 25 24 23 22 22 22 21 20 19 19 19 20 23 27 31 35 36
30 27 25 26 22 20 21 21 23 25 22 17 15 18 21 23 25 25 26 26 24 23 22 22 22 22 21 20 20 21 21 22 22 22 23 24 24 23 23 23 24 24 25 25 26 26 26 26 26 26 25 24 23 23 24 24 24 23 23 25 26 26 25 23 23 23 24 24 24 23 23 23 22 22 22 20 19 19 19 19 20 20 23 28 33
29 25 23 24 22 20 21 21 22 24 21 16 15 18 22 24 27 27 28 29 27 25 23 22 23 23 22 21 21 22 22 21 22 22 22 23 22 22 22 22 22 23 23 24 25 25 26 26 26 26 25 25 24 23 23 23 23 24 24 24 25 25 25 24 24 24 24 23 24 24 25 24 23 23 22 22 22 20 18 17 17 17 18 20 24
30 29 26 24 22 21 20 19 21 23 22 18 16 19 23 25 28 29 29 30 29 26 24 24 25 25 24 23 23 23 22 21 21 21 22 21 21 21 21 22 22 22 23 23 23 24 25 26 26 26 25 25 24 24 24 23 23 24 24 24 25 25 25 24 24 24 24 24 24 25 26 25 24 23 23 23 24 24 22 20 18 17 15 13 14
27 29 28 26 25 24 21 20 22 23 24 23 19 20 24 27 29 30 31 32 32 29 25 25 27 27 27 25 24 23 21 21 20 21 21 20 20 20 21 22 22 22 22 22 22 22 23 24 24 25 25 24 24 24 24 24 24 24 24 23 24 25 24 24 24 24 25 25 24 25 26 26 26 26 26 26 26 26 25 24 22 21 18 16 15
25 29 30 29 27 24 21 20 22 22 24 25 22 21 24 28 29 31 33 33 33 31 28 27 29 30 29 27 24 22 20 19 19 19 19 19 19 20 21 22 22 22 22 22 22 22 22 22 22 23 23 24 23 23 23 24 24 24 24 24 24 24 24 24 24 24 24 24 25 26 27 27 28 29 29 28 28 28 27 25 24 25 25 25 24
26 29 31 30 26 24 24 23 23 23 23 25 26 24 25 28 30 32 34 35 35 34 30 29 30 31 29 26 22 20 18 17 17 17 18 18 18 19 20 21 22 22 22 22 21 21 21 21 21 21 22 22 22 22 22 22 23 23 23 24 24 24 24 24 23 23 23 23 24 26 27 27 28 29 30 30 30 30 29 28 27 28 29 29 28
26 28 31 31 27 26 28 27 26 27 26 27 29 29 28 30 32 34 35 36 37 36 33 31 31 31 28 25 21 18 16 15 16 17 17 18 18 18 19 19 20 21 21 21 21 21 21 20 20 20 20 20 21 21 21 21 21 22 22 23 23 24 24 23 23 23 22 22 24 25 26 26 27 28 29 29 30 30 30 30 29 28 28 29 28
29 30 31 29 30 31 31 31 32 31 30 31 33 33 32 33 35 36 37 38 38 38 36 33 31 29 25 22 19 17 15 14 15 17 17 18 18 18 19 19 19 19 20 20 20 20 20 20 20 20 20 20 20 20 20 20 21 21 21 22 23 23 23 22 22 22 22 22 22 24 25 26 26 27 27 27 28 27 28 28 27 26 27 27 26
29 29 28 27 31 33 33 34 35 34 34 33 34 34 33 36 38 39 39 39 39 39 37 34 31 26 23 20 18 17 15 15 16 16 17 18 18 19 19 18 19 19 19 19 19 19 18 19 19 19 19 19 19 19 19 19 20 20 21 21 22 22 21 21 21 21 21 21 21 22 24 25 25 25 26 26 26 26 25 25 24 24 24 24 24
27 28 28 29 31 32 33 34 35 36 35 34 34 35 36 38 40 41 41 40 41 41 38 34 29 25 21 19 18 16 15 15 16 17 18 18 19 19 19 19 19 18 18 18 18 18 18 18 18 18 19 19 19 19 19 19 19 20 20 21 21 21 21 20 20 20 20 20 19 20 22 23 24 24 24 24 24 24 24 23 23 22 22 22 22
28 28 28 28 29 29 30 31 32 34 35 34 35 36 36 38 39 40 40 39 40 39 35 30 27 23 21 19 18 16 15 16 17 18 19 19 19 20 20 20 19 19 18 18 18 18 18 18 18 18 18 18 18 18 19 19 19 19 20 20 20 21 20 20 19 19 19 19 18 18 19 20 22 22 22 23 23 23 22 22 21 20 20 21 21
28 28 28 27 28 28 29 29 30 31 31 32 33 34 34 34 35 36 36 36 37 34 30 27 25 22 21 20 19 18 17 18 19 19 20 20 20 21 21 21 20 20 19 19 19 18 19 19 19 19 19 18 18 18 18 18 18 19 19 19 20 20 20 19 19 19 18 18 18 17 17 18 19 20 21 21 21 21 21 20 20 19 19 19 19
28 28 29 29 28 28 28 28 29 29 29 29 30 30 30 30 30 30 31 32 31 28 27 26 24 23 22 21 20 19 19 19 20 21 21 21 21 21 21 21 21 21 20 20 20 19 19 19 19 19 19 19 19 18 17 17 17 18 18 18 19 19 19 18 18 18 18 18 18 17 17 16 17 18 19 19 19 19 19 18 18 19 18 18 18
27 28 28 28 28 28 27 28 28 28 28 28 29 28 27 26 27 26 27 28 28 26 26 26 25 24 23 22 22 22 21 21 21 22 22 22 21 21 21 21 21 21 21 21 21 20 20 19 19 19 19 19 20 19 19 18 17 17 17 17 17 17 18 17 17 17 17 17 17 17 17 16 16 16 17 18 18 18 18 18 18 18 18 18 18
26 26 27 27 27 27 27 27 27 27 28 29 29 28 27 27 26 25 25 27 28 29 28 27 26 26 25 24 24 23 23 23 23 23 23 23 22 22 21 21 21 21 21 20 20 20 20 18 17 17 18 19 19 20 20 20 19 18 18 18 18 17 17 17 16 16 16 16 17 17 17 17 17 17 17 17 17 18 18 18 18 18 19 19 19
25 26 26 27 27 27 27 27 26 27 28 30 30 29 29 28 27 27 28 29 31 32 31 29 28 28 28 28 27 27 26 25 24 24 24 24 23 23 22 21 20 21 21 21 20 19 18 18 17 16 17 17 18 18 19 20 20 20 19 19 19 19 18 18 17 17 17 17 17 17 17 18 18 18 18 18 18 18 18 19 19 20 20 20 20
26 27 27 27 28 28 28 28 27 27 28 30 31 31 30 30 30 30 31 32 33 33 33 32 32 31 31 31 30 30 29 28 26 26 25 25 25 24 23 22 21 21 21 22 21 19 18 18 17 17 17 17 17 17 17 18 18 19 19 19 20 20 20 20 20 19 19 19 18 18 18 18 19 19 20 20 20 20 20 20 21 22 22 22 22
28 28 28 28 29 29 29 29 29 29 29 30 31 32 32 32 34 34 35 37 37 35 35 35 34 34 34 33 32 31 30 30 29 29 28 28 27 26 24 23 23 22 22 22 22 22 21 20 19 18 19 18 18 18 17 17 17 17 18 18 19 19 20 20 20 20 20 20 20 20 20 20 20 20 20 21 22 22 23 23 23 24 24 25 25
30 30 30 31 31 31 31 31 31 31 30 31 31 32 33 34 35 35 36 37 37 37 38 37 38 38 37 35 33 32 33 34 34 34 32 31 30 29 28 27 26 25 24 24 24 24 24 23 22 21 20 20 20 20 20 19 18 18 18 18 18 19 19 19 20 20 19 20 20 20 20 20 19 20 20 20 21 22 23 24 25 25 26 27 27
32 33 34 35 35 34 35 34 34 33 33 33 33 34 34 36 37 36 35 34 34 35 37 38 39 40 41 38 35 33 33 35 37 38 37 35 34 33 32 30 29 28 28 27 26 25 26 26 25 24 23 22 22 22 22 22 21 21 20 20 20 20 20 20 20 20 20 20 20 20 20 20 19 19 19 20 20 21 22 22 23 24 25 26 27
34 34 34 35 36 36 37 38 37 37 36 36 36 36 36 36 37 37 36 34 33 35 36 38 38 38 39 39 35 34 33 33 34 36 36 37 37 37 36 35 34 33 32 31 29 28 28 28 27 26 26 26 25 25 24 24 24 23 23 23 23 23 23 22 21 22 22 22 22 22 22 22 22 22 22 22 23 23 23 23 24 24 25 26 26
37 36 37 37 37 37 38 39 41 41 40 40 39 39 39 38 38 38 37 36 36 36 36 38 38 38 39 39 37 37 36 35 35 35 36 36 36 37 37 37 37 37 35 35 33 31 31 30 30 29 29 29 29 29 28 27 26 25 25 25 26 26 26 26 25 25 25 25 25 25 25 25 25 26 27 27 27 27 27 26 26 26 27 27 27
38 38 40 40 41 41 41 42 43 43 44 45 44 43 42 42 41 41 40 40 39 39 39 39 39 40 41 41 40 41 41 41 41 41 40 40 39 39 39 38 38 39 39 38 36 34 32 33 34 34 33 32 30 30 30 30 29 28 27 26 27 28 28 28 28 28 28 28 29 29 29 29 29 29 29 28 28 29 28 28 28 28 28 28 28
38 39 40 40 41 42 43 44 45 46 47 47 48 48 47 46 45 45 44 44 44 44 44 43 43 42 43 43 43 43 44 44 44 44 44 45 44 43 42 41 41 41 41 41 38 35 33 32 31 31 32 32 32 32 33 33 31 30 29 29 30 31 31 31 30 31 32 32 33 34 34 34 34 34 33 32 31 31 30 30 31 31 31 31 31
39 40 41 42 40 40 41 42 43 44 46 48 49 49 49 49 48 48 48 48 48 47 47 48 47 47 47 47 46 46 46 46 46 45 45 46 47 47 46 45 45 46 45 44 42 39 37 38 37 35 32 32 34 35 36 37 34 31 31 32 34 35 36 35 35 35 36 36 37 38 38 38 38 37 37 37 36 36 35 35 36 36 36 36 36
38 40 43 45 43 41 41 41 40 40 42 45 48 48 48 47 48 49 49 49 50 50 50 50 50 50 50 50 50 49 49 48 48 48 47 47 48 48 48 47 47 48 49 49 49 46 44 46 48 47 42 39 38 38 39 41 40 37 34 34 36 38 39 40 40 40 40 40 41 41 41 41 41 40 41 40 40 40 40 40 40 40 41 41 41
39 40 43 47 46 43 42 41 41 41 40 41 43 44 44 44 44 46 47 48 48 49 50 50 50 51 51 52 52 51 51 51 51 50 50 49 48 48 49 49 49 49 50 51 52 51 50 50 53 52 49 47 46 45 44 45 45 43 40 38 40 41 41 42 42 42 42 42 43 44 43 42 42 43 43 44 43 43 43 43 43 43 43 44 44
42 43 44 47 50 50 45 41 42 43 42 40 39 40 42 43 44 45 46 46 47 47 48 48 49 49 50 50 50 50 50 50 50 49 49 49 49 48 48 48 49 49 50 51 52 53 52 52 52 53 51 50 49 49 49 49 48 47 46 44 44 45 45 44 44 44 44 44 45 46 45 45 44 45 45 46 46 46 46 46 46 45 45 45 46
43 43 44 48 55 56 49 42 43 46 45 44 44 45 46 46 46 46 46 46 47 47 47 48 48 49 49 49 49 49 49 49 49 49 48 48 49 48 47 49 50 51 51 52 52 52 53 53 52 52 52 52 50 50 51 52 51 50 49 49 48 48 48 47 47 47 47 47 48 48 48 48 48 48 48 48 49 49 49 49 49 48 48 47 47
47 45 45 49 56 57 51 44 46 48 48 49 50 51 50 49 49 48 47 47 48 48 49 49 48 49 49 49 50 50 50 50 50 50 50 50 50 50 50 51 52 53 54 54 53 53 53 54 54 53 54 54 52 51 51 53 53 52 52 53 53 52 51 50 50 50 50 50 50 50 50 50 51 51 51 51 52 52 52 52 51 51 50 50 50
49 48 49 53 55 55 54 51 50 49 50 51 52 52 51 52 52 51 49 48 48 48 49 49 49 49 49 50 51 51 51 51 51 52 52 53 53 53 53 54 54 55 55 56 57 56 55 55 56 57 57 57 55 53 52 52 52 53 54 55 55 55 54 53 53 53 53 53 53 53 52 53 53 54 54 54 55 55 55 54 53 53 53 53 53
51 52 55 57 56 55 56 55 52 50 51 53 54 54 54 54 52 50 49 48 47 47 48 48 48 49 50 50 51 51 51 52 52 52 53 53 53 53 54 55 56 57 57 58 59 60 58 57 57 57 58 58 57 55 53 52 52 52 54 54 54 54 54 55 55 55 55 54 54 54 54 54 55 56 56 56 56 56 56 55 54 54 55 54 55
54 54 56 59 61 61 61 61 57 54 52 53 55 56 55 53 51 50 49 49 48 48 48 48 48 49 50 51 51 51 52 52 52 53 53 53 54 54 54 55 56 57 58 59 59 59 58 57 56 56 56 56 55 55 54 54 53 52 52 52 52 52 53 53 54 54 54 54 54 54 54 55 55 55 56 56 56 56 56 55 55 55 56 55 55
53 51 53 57 60 62 63 64 61 56 53 54 56 57 56 55 54 53 51 51 50 49 48 48 48 49 50 50 51 52 52 52 53 53 53 54 54 54 54 55 55 56 56 57 57 57 57 56 55 54 54 53 53 54 54 54 53 52 51 51 51 51 51 52 52 52 52 52 53 53 53 53 54 54 54 54 54 54 54 53 54 55 55 55 55
52 52 54 58 60 61 63 63 60 57 55 56 58 58 57 56 54 53 51 51 50 50 49 48 49 49 49 50 50 51 52 53 53 53 54 54 54 55 55 55 55 55 56 56 56 56 55 54 54 53 53 53 53 53 53 53 53 52 51 51 50 50 51 51 51 51 51 51 52 52 52 52 52 52 52 52 52 53 52 53 53 54 54 54 54
53 54 55 57 58 59 60 60 59 58 57 56 56 56 54 53 52 51 50 50 50 50 49 48 48 49 49 49 50 51 52 52 52 53 53 54 54 55 55 55 54 54 55 55 54 54 53 53 53 53 53 53 53 52 52 52 52 52 51 51 51 50 50 50 50 50 51 51 52 52 52 51 52 52 52 52 52 52 53 53 53 53 54 54 54
52 53 54 55 56 57 58 58 58 58 57 56 54 53 53 52 52 51 51 50 50 50 49 49 49 49 49 49 50 50 50 51 51 52 52 53 53 54 54 54 54 55 55 54 53 53 52 51 51 52 52 52 52 52 52 52 52 52 51 51 50 51 50 50 50 50 50 51 52 53 52 51 52 52 52 52 52 52 53 53 53 53 54 54 54
53 53 54 54 55 57 58 59 59 58 58 56 55 55 55 54 53 52 52 51 51 51 50 50 49 49 49 49 49 49 50 50 50 51 51 51 51 52 53 53 53 54 54 54 53 52 51 49 50 50 50 50 51 51 52 52 52 52 51 50 50 51 50 50 50 50 50 51 52 52 51 51 52 52 52 52 52 52 53 53 53 54 54 54 54
54 54 54 55 55 56 57 58 59 59 58 58 57 56 56 55 53 52 52 51 52 52 51 50 50 49 49 49 49 49 49 49 50 50 50 50 50 50 51 51 51 52 53 52 51 49 48 48 48 48 48 48 49 50 51 51 51 51 51 51 51 51 51 50 50 50 50 51 51 51 51 51 51 52 52 52 52 52 52 53 53 53 54 54 54
53 54 54 54 54 54 56 57 59 59 59 58 57 56 55 54 53 53 52 52 53 53 52 51 51 50 50 50 49 49 49 49 49 49 49 49 49 49 49 49 49 51 52 51 48 46 46 46 46 46 46 46 47 47 48 49 49 49 50 50 50 50 50 50 50 50 50 50 50 50 50 50 50 51 51 51 51 51 51 52 53 53 54 54 55
52 53 54 54 54 55 56 57 58 58 57 57 56 55 55 54 53 53 53 53 53 53 53 53 52 51 51 51 50 50 49 49 48 48 48 48 49 48 46 46 48 49 49 49 46 44 44 45 45 45 45 45 45 45 46 46 46 47 47 47 47 47 48 48 48 48 47 48 48 48 48 49 48 48 48 49 49 49 50 51 53 53 54 55 55
52 53 54 55 55 56 56 57 56 56 55 55 55 55 55 55 54 54 55 54 54 54 54 53 52 53 52 51 50 49 49 48 47 47 46 47 47 46 45 45 46 47 47 46 44 43 43 45 45 44 44 44 43 43 44 44 44 45 45 45 45 44 45 45 45 45 45 45 45 46 46 46 47 47 47 48 49 50 51 52 52 53 54 54 55
53 54 54 55 55 55 56 56 56 56 57 57 56 56 56 56 56 56 56 56 56 55 55 54 52 52 52 51 50 50 49 48 47 46 46 46 46 45 45 46 46 46 46 45 44 43 43 44 44 44 44 44 43 43 44 44 45 45 45 45 44 44 43 43 43 44 44 44 44 45 45 46 46 47 47 48 49 50 50 51 52 52 53 55 56
53 54 54 55 55 55 56 57 57 58 59 59 58 58 58 57 57 57 57 57 57 56 55 54 52 52 51 51 50 50 50 49 48 47 46 47 46 45 46 47 47 46 45 45 45 43 42 43 43 44 44 44 44 44 45 45 45 45 45 45 45 45 44 44 44 45 45 45 45 45 45 46 46 46 46 47 47 48 48 49 51 53 54 56 58
53 53 54 55 56 55 56 57 57 58 60 60 58 58 58 57 57 57 57 58 57 56 56 54 53 52 51 51 51 51 50 50 49 47 47 47 46 46 46 46 45 45 45 45 45 44 43 44 44 43 43 43 44 44 44 44 44 44 44 44 44 44 44 44 44 45 44 43 42 42 41 41 41 42 42 44 45 47 49 51 52 54 56 58 59
53 54 55 56 56 56 56 57 58 59 59 59 58 57 57 57 57 57 58 58 57 57 57 55 54 53 53 52 52 52 51 51 49 48 47 47 46 46 46 45 44 44 44 44 44 44 44 44 44 43 43 42 42 42 42 42 42 41 40 40 39 39 39 39 39 39 37 35 34 35 35 36 38 40 42 44 46 48 50 51 53 54 55 57 58
Wind_Direction
269 271 271 273 273 273 273 273 269 266 264 266 272 277 281 284 283 283 283 284 284 284 285 284 284 285 286 287 285 282 282 282 281 281 279 276 273 271 269 267 266 266 268 270 272 274 276 277 281 284 285 286 285 284 281 280 278 275 274 272 268 267 266 264 263 264 264 260 260 262 261 262 262 257 252 249 247 243 236 233 233 235 236 236 236
270 270 267 268 270 269 270 274 269 264 263 266 273 280 282 283 283 283 285 286 286 287 288 288 288 287 287 288 285 283 283 283 283 282 282 281 278 275 272 269 267 267 268 269 272 275 277 277 279 281 282 282 281 279 278 278 276 275 274 271 267 265 266 268 268 266 264 261 262 265 264 264 267 266 262 259 255 248 242 237 234 236 237 238 238
268 269 267 267 270 272 275 278 269 262 266 270 276 282 282 282 282 284 286 287 288 290 292 294 293 292 293 292 288 284 282 282 282 282 281 281 280 279 276 274 272 270 270 271 273 276 277 278 278 278 278 277 277 276 275 275 274 273 271 269 265 262 263 266 267 263 262 266 268 266 266 268 267 265 265 267 268 259 249 242 239 239 239 239 239
266 267 268 268 270 272 274 273 263 261 267 271 278 282 282 283 283 285 287 288 291 294 296 298 299 298 296 296 293 288 284 283 282 281 281 279 279 279 278 277 275 274 274 273 274 275 275 276 275 275 274 273 273 272 271 271 270 271 271 270 268 265 263 263 264 262 263 266 266 264 265 267 267 266 266 266 268 267 257 248 244 243 242 241 240
263 265 268 270 271 269 266 262 255 259 266 268 276 280 281 284 284 287 289 290 293 296 299 301 301 300 297 298 296 292 288 285 283 282 281 280 279 279 279 278 276 275 274 273 273 273 272 272 272 271 270 269 269 269 269 268 269 270 271 270 270 270 268 265 263 262 262 264 265 264 264 265 267 267 267 268 270 266 259 256 255 251 248 245 243
265 266 269 271 271 264 261 261 255 257 261 262 269 276 279 283 286 289 290 291 294 297 301 301 300 299 297 299 299 295 291 287 285 283 281 280 279 279 279 278 276 274 272 271 271 271 270 269 268 268 268 267 266 267 268 268 269 269 269 269 270 270 270 267 264 263 261 262 263 261 260 264 267 267 266 266 268 264 258 257 259 259 254 251 248
268 267 268 271 271 265 264 269 262 254 255 258 264 271 278 282 285 288 289 292 295 297 301 301 300 299 299 301 302 298 293 289 286 283 280 279 277 278 278 278 277 275 273 270 268 268 268 268 267 266 266 266 265 265 265 266 267 267 267 268 269 269 269 266 264 264 261 258 258 258 260 263 263 263 263 260 258 258 258 260 263 265 260 253 250
270 268 266 265 267 266 266 270 262 252 257 265 264 267 275 279 283 286 289 291 294 296 300 301 300 300 301 303 303 299 294 290 286 282 280 278 275 275 276 276 275 274 274 271 268 267 266 266 266 266 266 266 265 264 264 263 263 264 266 267 267 267 267 265 263 262 259 257 256 258 261 261 258 258 259 260 259 260 262 267 273 275 267 258 254
269 271 269 265 265 265 264 265 263 261 265 266 265 266 271 277 281 285 288 289 292 295 299 300 300 300 302 303 302 297 292 288 284 281 280 278 276 275 275 276 275 274 273 272 270 268 266 265 265 265 266 265 264 264 263 263 262 261 262 263 264 265 265 264 262 259 259 258 258 259 260 258 258 259 260 262 262 264 268 271 273 271 269 272 278
265 269 271 269 270 273 274 272 272 274 268 260 262 269 271 276 281 283 285 287 290 293 296 299 300 300 302 301 297 293 289 286 283 280 279 277 277 276 275 275 275 274 273 271 270 269 268 267 265 265 265 265 264 263 262 262 261 261 261 261 262 263 263 262 261 259 257 257 257 258 258 257 258 259 260 261 262 266 270 271 271 270 271 276 280
263 268 271 269 270 275 278 275 271 271 264 256 262 273 274 275 278 280 283 285 287 290 293 296 298 298 298 296 291 287 283 282 282 279 277 276 275 274 273 273 273 273 272 271 269 268 268 267 267 267 266 267 266 265 264 263 262 262 262 262 262 263 263 262 261 260 257 255 255 256 257 257 257 258 259 259 262 266 269 270 270 271 273 275 277
264 267 267 268 269 268 267 267 265 263 259 255 263 274 275 274 275 277 279 282 284 287 290 293 295 294 291 288 285 283 280 279 280 278 277 275 274 272 272 272 272 271 271 270 270 269 268 267 267 267 267 267 267 266 267 266 265 264 263 264 264 265 265 263 262 260 258 255 254 256 257 257 257 258 259 260 262 264 266 268 269 268 269 270 273
264 264 267 271 271 267 264 263 263 262 259 257 262 270 273 273 273 274 277 278 280 284 287 290 290 287 282 280 279 278 279 281 280 277 276 274 273 272 271 271 270 271 271 271 270 269 269 269 269 269 268 268 268 267 267 267 268 267 266 266 266 267 267 265 263 261 258 255 253 254 256 258 258 259 260 261 261 262 263 264 265 264 264 264 265
266 268 270 268 266 267 266 265 265 264 263 261 262 266 268 269 271 272 274 276 278 280 283 286 285 279 274 273 273 274 279 283 282 278 275 273 273 273 272 271 270 270 271 271 271 270 270 270 270 271 271 271 270 269 268 268 268 268 268 268 268 269 270 269 267 264 262 258 255 254 256 258 259 260 261 261 262 262 261 262 262 261 261 261 262
269 269 267 263 262 264 265 266 267 266 265 264 263 263 262 264 267 269 271 273 274 276 279 281 276 271 270 270 270 273 278 282 281 277 275 274 275 274 274 273 272 271 271 271 272 272 272 272 271 271 271 272 273 273 272 271 270 270 270 270 270 271 271 272 271 269 268 265 260 256 255 257 259 259 260 261 262 262 262 263 263 261 260 261 262
268 267 265 264 263 263 263 264 264 265 265 264 262 261 261 262 263 265 267 268 269 272 275 273 268 267 269 269 271 274 278 281 279 276 274 274 274 274 274 275 274 274 273 273 273 274 274 273 272 272 271 271 272 273 274 274 274 274 273 273 273 273 273 273 273 272 271 270 268 264 259 258 259 260 260 261 262 263 264 263 263 262 260 259 260
267 266 265 264 263 263 263 263 263 263 263 262 261 261 261 262 262 262 263 262 264 267 267 263 262 265 266 267 271 274 276 279 277 273 272 273 272 271 272 274 275 275 275 275 274 274 275 275 274 273 272 270 270 270 271 273 274 275 276 276 276 276 277 276 275 274 273 272 272 270 267 262 260 261 261 261 262 263 263 262 261 260 259 258 258
269 267 265 265 265 264 263 262 262 261 260 259 258 259 259 259 259 259 258 258 258 259 257 257 260 261 262 265 268 271 273 274 272 270 269 269 269 270 271 273 275 277 278 278 278 276 274 274 274 273 272 271 269 267 267 268 270 272 274 276 276 277 278 278 277 275 274 273 273 272 271 267 264 262 262 262 263 263 263 262 260 259 259 259 258
270 270 269 268 266 264 263 261 259 258 257 255 254 254 254 252 252 252 253 254 254 252 251 254 256 257 258 261 264 267 269 268 266 265 264 265 266 267 268 271 274 277 280 281 282 281 279 276 274 273 272 270 268 266 264 263 263 265 268 270 273 275 276 277 277 276 274 272 272 272 272 270 267 264 262 263 263 265 265 263 261 259 259 260 260
271 271 270 269 267 266 263 259 256 254 252 251 249 248 246 246 246 246 248 252 254 252 251 251 253 255 257 259 261 263 265 264 263 262 260 260 261 261 262 265 269 273 277 279 282 284 283 281 278 275 273 270 268 266 264 262 261 260 261 264 266 268 270 272 273 273 274 273 271 270 270 270 270 268 266 264 263 264 266 267 267 264 262 261 262
271 270 268 267 267 266 264 260 255 251 249 248 247 246 244 243 244 244 245 249 253 254 255 254 252 253 255 257 258 260 260 260 260 260 260 258 257 258 259 260 264 269 273 274 276 278 279 279 278 275 273 271 269 267 265 264 262 261 260 261 263 265 267 267 268 268 268 269 269 269 268 268 268 269 268 267 265 263 263 265 267 268 268 267 265
270 268 266 266 266 266 265 262 258 253 248 247 247 247 247 245 245 245 246 249 251 253 255 254 254 254 256 257 258 259 259 259 260 260 259 256 257 258 259 260 261 264 269 271 270 269 269 272 273 271 270 268 266 266 265 264 263 263 261 260 261 263 265 265 266 266 265 265 265 266 267 267 267 268 268 268 269 267 266 264 264 265 267 267 268
270 266 264 264 264 264 264 263 261 257 252 248 247 248 249 250 252 251 250 251 252 252 253 254 255 256 257 259 260 260 260 260 261 262 260 258 258 259 260 261 260 260 263 266 267 265 264 264 264 264 266 267 265 264 263 262 262 262 261 260 259 259 260 262 264 266 268 268 267 267 267 268 268 269 269 270 271 271 271 271 269 268 267 266 267
267 265 263 263 262 262 261 260 259 257 255 253 250 249 250 254 258 259 256 256 255 255 255 256 257 257 259 262 262 262 264 264 262 261 260 260 259 260 262 263 262 263 264 263 262 263 263 262 260 260 263 265 266 266 265 264 262 262 261 261 260 259 259 260 262 264 266 268 268 268 268 268 268 269 271 272 272 273 274 274 274 274 273 271 270
266 264 263 262 261 259 258 257 256 254 253 253 253 253 253 255 259 263 263 261 259 257 257 260 263 262 261 261 261 263 267 267 264 260 259 260 260 262 263 261 260 263 264 263 262 260 261 261 259 260 262 263 264 265 265 264 262 262 262 262 262 261 260 260 259 261 262 262 263 264 264 264 265 267 269 271 273 275 277 277 278 278 278 278 277
265 263 262 261 260 259 257 254 253 252 251 250 251 253 254 254 257 260 263 264 261 259 257 259 262 262 259 258 261 264 266 267 266 263 262 263 263 263 264 262 260 261 262 264 264 261 259 258 256 257 259 259 259 259 260 261 262 261 261 262 264 263 262 262 262 261 261 260 260 259 259 260 260 263 266 270 273 275 276 278 279 280 281 282 283
265 263 262 261 260 261 259 256 253 252 251 250 249 249 251 252 253 255 258 261 262 262 260 259 260 260 260 260 262 264 265 264 264 265 265 266 265 264 267 268 265 263 265 267 266 262 260 258 256 257 257 256 257 258 257 256 256 258 259 260 262 264 264 264 265 265 265 265 266 264 264 265 265 266 267 269 272 274 275 276 277 278 280 281 282
265 264 264 263 262 262 263 261 257 254 252 251 250 249 248 249 251 252 253 255 257 260 261 262 262 262 263 264 263 263 264 264 264 264 265 266 266 266 269 270 267 264 265 267 267 264 264 263 260 258 256 254 255 257 257 256 254 253 256 259 260 262 265 265 266 267 268 270 272 272 273 274 274 273 272 273 275 276 275 276 277 278 279 281 282
263 263 264 264 264 264 264 263 261 258 255 253 252 251 249 249 249 250 251 253 254 257 259 261 262 263 263 264 265 265 265 266 265 265 265 266 267 267 267 268 269 268 266 267 266 263 262 263 261 259 256 252 252 254 257 261 259 252 250 255 258 260 262 263 264 266 267 269 271 273 275 276 277 277 277 279 280 279 278 278 278 279 281 282 283
262 263 263 262 262 262 261 261 262 262 258 254 252 252 252 251 251 251 251 252 253 255 257 259 260 262 262 263 264 265 265 265 265 265 264 265 266 267 267 266 267 268 268 268 267 263 258 256 259 266 265 257 255 256 258 263 267 261 253 252 256 260 262 262 262 263 265 267 269 271 273 275 277 278 279 280 281 281 281 280 280 280 281 282 283
265 264 262 261 260 259 259 259 261 264 263 258 255 253 253 254 255 255 254 254 255 256 257 258 259 260 261 262 262 263 263 264 264 265 265 264 264 266 266 266 265 266 267 267 268 267 264 261 263 269 270 266 263 263 262 264 269 270 265 259 258 261 262 263 264 265 266 268 270 271 272 273 276 278 279 281 282 282 282 281 281 281 282 283 283
264 266 264 262 259 256 256 259 260 262 263 261 258 255 254 255 257 258 257 258 258 258 258 259 259 260 260 260 261 261 262 263 263 264 265 265 265 264 265 266 266 266 266 267 268 269 268 267 267 269 269 268 267 267 266 266 267 270 270 267 264 263 263 264 265 265 267 268 270 271 271 272 273 276 278 280 281 282 282 282 282 283 283 284 284
261 263 264 264 261 258 257 259 260 259 258 258 258 258 257 257 259 260 259 259 259 259 259 260 260 260 260 260 260 260 261 262 263 263 264 264 265 265 265 266 267 267 267 267 268 269 269 269 269 270 269 267 266 266 267 268 268 269 270 268 266 264 264 265 265 266 267 268 268 269 271 272 273 274 276 277 279 280 281 282 282 283 284 285 285
260 261 262 262 262 263 264 261 258 258 257 256 257 259 260 261 263 263 261 260 259 259 259 259 259 260 260 260 260 259 260 260 261 261 262 263 263 264 266 268 269 269 269 269 268 269 270 271 271 271 271 270 268 268 268 269 270 271 271 270 267 266 265 266 266 267 269 270 270 270 272 273 273 274 275 276 277 278 279 281 282 284 284 284 283
258 260 261 261 262 266 267 262 256 257 258 259 260 261 262 263 264 264 262 260 260 259 259 259 259 259 259 260 260 260 259 259 259 259 259 260 260 260 260 263 265 267 268 269 270 269 269 271 272 271 271 272 272 270 269 270 271 272 272 271 270 270 269 268 268 269 270 271 272 273 274 275 275 275 276 276 277 278 278 280 281 283 283 282 281
255 256 258 261 264 265 265 263 260 258 260 261 262 263 263 264 265 266 265 262 261 260 260 260 260 260 260 260 260 260 260 259 259 259 259 259 259 259 257 257 258 260 262 264 267 268 268 269 270 271 271 272 273 272 270 269 269 269 270 270 270 271 271 270 269 270 270 271 272 274 274 275 275 276 276 277 277 278 279 280 280 280 279 279 279
252 251 252 256 260 262 263 264 263 261 261 261 262 263 264 265 266 266 265 264 263 262 262 261 261 261 261 261 261 261 261 261 260 260 260 260 260 260 259 258 258 258 259 260 263 266 267 268 268 269 270 271 272 272 271 270 269 269 269 269 270 270 270 270 270 270 271 271 272 272 273 273 274 275 275 276 277 277 278 279 279 278 277 277 277
252 252 253 254 257 259 261 263 263 262 261 261 262 263 264 264 264 265 265 265 265 264 263 263 262 262 261 261 261 261 262 262 262 262 262 262 262 261 261 261 261 260 260 261 263 265 266 267 268 268 269 270 270 271 271 271 271 271 271 271 271 271 271 271 271 271 271 272 271 272 272 272 273 273 274 274 275 275 276 276 275 275 276 276 276
251 252 253 253 255 256 259 261 262 261 260 261 262 263 263 264 265 266 266 267 267 266 265 264 263 262 262 262 262 262 262 262 262 263 263 263 264 264 263 263 263 263 263 263 264 264 265 267 268 269 269 268 269 270 271 271 272 273 273 272 272 272 272 272 271 271 271 271 272 272 272 272 272 272 273 273 273 273 274 274 273 274 274 275 275
250 250 251 253 255 256 258 262 264 263 261 261 261 262 264 264 265 266 266 266 266 266 265 265 265 264 264 263 263 263 262 262 262 262 262 263 263 264 264 264 264 264 264 264 264 265 266 267 268 268 268 268 269 269 270 271 272 273 273 273 273 272 272 272 272 272 272 272 272 272 272 272 273 273 273 273 273 273 273 273 273 274 274 274 274
251 250 251 253 256 258 259 261 263 263 262 261 261 262 263 263 264 264 264 265 265 265 265 265 265 265 265 264 264 264 264 263 263 263 263 263 263 264 264 265 265 265 265 265 265 265 266 266 266 267 267 268 268 269 269 270 270 271 271 272 272 272 271 272 272 272 272 272 272 273 273 274 274 274 274 273 273 273 274 274 274 274 274 273 274
255 252 252 253 254 256 258 259 259 260 261 261 262 262 262 262 262 263 264 264 265 266 266 266 266 265 265 265 265 265 265 265 265 264 264 264 264 265 265 266 266 267 267 267 267 267 267 267 266 266 266 266 267 267 268 269 269 269 270 270 271 271 271 271 271 272 272 272 273 273 274 274 274 274 274 274 274 273 273 273 273 272 272 273 274
260 257 255 253 253 254 255 257 259 260 260 261 261 261 262 263 263 264 264 265 266 266 267 267 267 267 266 266 265 265 265 265 265 265 265 265 265 265 266 266 267 268 268 268 268 269 269 268 267 267 267 266 266 266 266 267 267 268 268 269 269 270 271 271 271 272 272 272 272 273 273 274 274 274 274 274 274 273 273 272 272 272 272 273 274
262 262 260 258 257 255 255 257 258 259 260 260 261 262 263 264 265 266 266 267 267 267 268 268 268 268 267 267 266 266 265 265 265 264 265 265 265 265 266 267 268 269 269 269 269 270 270 269 268 268 267 266 265 264 264 265 266 266 267 267 268 269 270 270 271 271 272 272 273 273 274 274 273 273 274 274 274 273 272 272 272 272 273 274 274
263 263 263 262 260 259 258 258 258 259 260 261 262 263 264 265 265 266 267 267 267 268 268 268 268 267 267 267 266 266 266 265 265 265 265 265 265 265 266 267 267 268 269 269 270 270 270 270 269 269 268 267 266 265 265 265 265 266 266 267 267 268 269 270 270 271 272 272 273 274 274 274 274 274 274 274 274 274 274 273 273 273 274 275 275
262 263 263 262 261 260 259 259 259 261 262 264 265 265 265 265 266 266 266 266 266 267 267 267 267 267 267 266 266 266 266 266 265 265 265 265 265 265 265 265 265 266 267 269 270 270 269 268 268 268 268 268 268 267 266 266 266 267 268 268 269 269 270 270 270 271 272 272 273 273 274 274 274 275 275 276 276 276 275 275 275 275 275 275 275
262 262 262 262 262 262 262 262 263 264 264 265 266 265 265 265 265 265 265 266 265 265 266 266 267 267 267 267 267 266 266 266 266 265 265 265 266 266 266 266 265 266 266 267 267 267 266 266 267 267 268 268 268 268 268 268 268 269 270 271 272 272 272 272 272 272 273 273 273 274 274 275 276 276 276 276 277 277 277 277 277 276 276 275 275
261 261 262 262 263 264 264 265 264 264 264 263 263 263 264 264 264 265 265 265 265 266 266 265 266 266 267 268 267 267 267 266 266 265 265 265 265 266 266 266 266 267 267 267 267 266 266 266 267 267 267 267 268 268 268 268 269 270 271 272 273 273 273 273 273 274 274 274 275 275 275 275 276 276 276 277 277 277 277 277 277 276 276 276 276
263 263 263 263 263 262 263 263 263 263 264 264 264 264 265 265 265 266 266 266 267 267 267 267 266 266 266 266 266 266 266 266 265 265 265 265 265 264 264 265 265 266 267 267 267 266 266 266 266 266 266 267 268 267 268 268 269 270 271 271 271 272 272 272 272 272 273 273 274 274 275 275 276 276 277 277 278 278 279 279 279 279 279 279 279
264 264 263 263 262 261 261 262 262 262 263 264 265 265 265 266 266 266 266 266 266 267 267 267 266 265 265 265 266 265 265 265 265 265 265 266 266 265 264 264 265 265 266 266 266 266 266 266 266 266 266 267 267 267 267 268 268 269 269 269 269 269 269 269 269 269 270 272 273 274 275 276 277 278 280 280 281 281 281 281 281 281 281 280 280
265 265 264 263 264 264 263 263 263 263 264 265 265 265 265 265 265 265 264 264 264 265 265 265 265 265 265 264 265 265 265 265 266 266 266 266 266 266 265 266 266 267 267 267 267 266 266 266 265 265 265 265 264 264 265 266 266 266 266 266 266 266 266 266 267 269 271 273 275 277 278 280 281 282 282 282 283 283 283 283 283 282 282 282 281
Height
5755 5757 5758 5758 5759 5760 5761 5761 5761 5761 5761 5761 5761 5761 5761 5762 5762 5763 5764 5764 5764 5765 5765 5765 5765 5766 5766 5765 5764 5764 5764 5764 5764 5765 5765 5766 5766 5767 5768 5768 5769 5769 5769 5769 5769 5769 5770 5770 5771 5772 5773 5773 5774 5774 5774 5774 5775 5775 5775 5775 5775 5775 5776 5777 5777 5778 5779 5779 5779 5779 5780 5780 5780 5781 5781 5782 5783 5784 5786 5788 5790 5791 5793 5795 5797
5753 5755 5756 5757 5758 5759 5759 5759 5758 5759 5759 5758 5758 5758 5759 5759 5760 5760 5761 5762 5762 5762 5763 5763 5763 5764 5764 5764 5763 5762 5762 5762 5762 5763 5763 5763 5764 5764 5765 5766 5766 5766 5766 5766 5767 5767 5767 5768 5769 5770 5770 5771 5772 5772 5772 5773 5773 5773 5773 5773 5773 5773 5774 5775 5775 5775 5776 5777 5778 5778 5779 5778 5778 5779 5780 5781 5781 5782 5782 5784 5786 5788 5790 5792 5793
5753 5753 5754 5755 5755 5756 5756 5756 5756 5757 5757 5755 5755 5756 5756 5757 5757 5758 5759 5759 5760 5760 5760 5761 5761 5761 5761 5761 5761 5760 5761 5760 5760 5760 5761 5761 5761 5761 5762 5762 5763 5763 5764 5764 5764 5764 5764 5765 5767 5768 5768 5769 5770 5770 5770 5770 5770 5771 5771 5770 5770 5772 5773 5774 5774 5774 5774 5775 5776 5776 5777 5777 5777 5777 5778 5779 5779 5780 5780 5781 5783 5785 5787 5788 5790
5751 5752 5752 5753 5753 5754 5754 5753 5753 5754 5754 5753 5753 5753 5753 5754 5754 5755 5756 5757 5757 5758 5758 5758 5758 5759 5759 5759 5759 5758 5758 5758 5758 5758 5758 5758 5759 5759 5759 5759 5760 5761 5761 5762 5762 5762 5762 5763 5764 5765 5766 5767 5768 5768 5768 5767 5768 5768 5769 5768 5768 5769 5770 5772 5772 5772 5772 5772 5773 5773 5774 5775 5775 5776 5776 5777 5777 5778 5778 5779 5780 5782 5783 5784 5786
5748 5750 5750 5749 5751 5751 5751 5751 5752 5752 5751 5750 5750 5750 5751 5751 5752 5753 5754 5754 5755 5756 5756 5756 5756 5756 5756 5757 5756 5756 5756 5756 5756 5756 5756 5756 5756 5756 5757 5757 5757 5758 5759 5759 5760 5760 5760 5761 5761 5762 5764 5765 5765 5766 5765 5765 5766 5766 5766 5766 5765 5766 5767 5769 5770 5770 5770 5770 5770 5771 5772 5773 5774 5774 5774 5775 5775 5776 5776 5777 5778 5779 5780 5781 5782
5744 5747 5747 5745 5747 5749 5749 5749 5750 5750 5749 5747 5747 5748 5748 5749 5749 5750 5751 5751 5752 5753 5754 5754 5753 5753 5754 5754 5754 5754 5754 5754 5754 5754 5754 5754 5754 5754 5754 5754 5755 5755 5756 5757 5757 5757 5758 5758 5759 5759 5760 5761 5762 5763 5763 5763 5763 5764 5763 5763 5763 5763 5764 5765 5767 5767 5767 5768 5768 5769 5770 5771 5771 5772 5772 5773 5773 5774 5774 5775 5776 5777 5777 5778 5778
5740 5743 5744 5743 5744 5746 5747 5747 5747 5748 5746 5744 5744 5745 5746 5746 5747 5748 5749 5749 5750 5751 5751 5751 5751 5751 5751 5752 5752 5751 5751 5751 5752 5752 5752 5752 5752 5752 5752 5752 5753 5753 5753 5754 5755 5755 5755 5755 5756 5756 5757 5758 5759 5760 5760 5760 5760 5760 5761 5761 5761 5761 5761 5762 5763 5764 5764 5766 5766 5767 5768 5768 5769 5770 5770 5770 5771 5772 5772 5773 5774 5774 5774 5775 5775
5737 5739 5741 5742 5743 5744 5745 5745 5745 5747 5745 5741 5741 5743 5743 5744 5744 5745 5746 5746 5747 5748 5749 5749 5748 5748 5749 5749 5749 5749 5749 5749 5749 5749 5749 5749 5750 5750 5750 5750 5750 5750 5751 5751 5752 5753 5753 5753 5753 5753 5754 5755 5756 5756 5756 5757 5757 5757 5758 5758 5758 5758 5759 5760 5761 5761 5761 5763 5764 5764 5765 5766 5767 5767 5767 5768 5769 5770 5770 5771 5772 5772 5772 5772 5773
5735 5735 5737 5739 5741 5741 5743 5743 5743 5744 5743 5740 5738 5740 5741 5741 5742 5742 5743 5744 5744 5745 5746 5746 5746 5746 5746 5747 5747 5747 5747 5747 5747 5747 5747 5747 5747 5747 5747 5747 5748 5748 5748 5748 5749 5750 5750 5750 5751 5751 5751 5752 5752 5753 5753 5753 5753 5754 5754 5755 5755 5755 5756 5757 5758 5759 5759 5760 5761 5761 5761 5763 5764 5764 5765 5766 5766 5767 5767 5768 5769 5769 5769 5770 5771
5735 5733 5733 5734 5735 5736 5737 5738 5739 5739 5740 5739 5737 5737 5739 5739 5739 5740 5740 5741 5741 5742 5743 5744 5743 5743 5744 5744 5744 5745 5745 5744 5745 5745 5745 5745 5745 5745 5745 5745 5745 5745 5745 5746 5746 5747 5747 5747 5748 5748 5748 5749 5749 5750 5750 5750 5750 5750 5751 5752 5752 5752 5753 5754 5755 5755 5756 5757 5757 5757 5758 5759 5760 5761 5762 5763 5763 5764 5765 5766 5767 5767 5767 5768 5769
5733 5733 5731 5731 5732 5733 5734 5734 5736 5737 5737 5738 5737 5734 5735 5737 5737 5737 5737 5738 5739 5739 5741 5741 5741 5741 5741 5742 5742 5742 5742 5742 5742 5743 5743 5743 5743 5742 5743 5743 5743 5743 5743 5743 5744 5744 5744 5744 5745 5745 5746 5746 5746 5747 5747 5747 5747 5747 5748 5748 5749 5749 5750 5751 5752 5752 5753 5754 5754 5754 5755 5756 5757 5758 5759 5760 5760 5761 5762 5763 5764 5764 5764 5764 5765
5732 5731 5729 5730 5732 5733 5733 5733 5734 5735 5736 5738 5737 5732 5731 5733 5734 5734 5735 5736 5736 5736 5738 5739 5739 5739 5739 5739 5740 5740 5740 5740 5741 5741 5740 5740 5740 5740 5740 5740 5740 5741 5741 5741 5741 5742 5742 5742 5742 5743 5743 5743 5744 5744 5744 5744 5745 5745 5745 5745 5746 5746 5747 5748 5749 5749 5750 5751 5751 5751 5752 5752 5753 5754 5755 5756 5757 5758 5758 5759 5760 5761 5761 5761 5762
5728 5727 5727 5729 5730 5730 5731 5732 5732 5733 5733 5734 5734 5731 5729 5730 5731 5731 5732 5733 5734 5734 5735 5737 5737 5737 5737 5737 5738 5738 5738 5739 5739 5739 5738 5738 5738 5738 5738 5738 5738 5739 5739 5739 5739 5739 5739 5740 5740 5740 5740 5741 5741 5742 5742 5742 5742 5742 5743 5743 5743 5743 5744 5745 5745 5746 5747 5748 5749 5749 5749 5749 5750 5750 5751 5752 5753 5754 5755 5755 5756 5757 5757 5758 5759
5725 5724 5726 5727 5726 5726 5727 5728 5728 5729 5729 5730 5730 5729 5729 5728 5728 5728 5729 5730 5731 5731 5733 5734 5735 5735 5735 5735 5735 5736 5736 5737 5737 5737 5737 5736 5736 5736 5736 5736 5737 5737 5737 5737 5737 5737 5737 5738 5738 5738 5738 5738 5739 5739 5740 5740 5740 5740 5741 5741 5741 5741 5741 5742 5743 5743 5744 5745 5746 5746 5747 5747 5747 5748 5748 5749 5750 5751 5751 5752 5752 5753 5753 5754 5755
5723 5722 5723 5723 5723 5723 5724 5724 5724 5724 5725 5726 5726 5727 5727 5727 5726 5726 5726 5728 5729 5729 5730 5731 5732 5732 5733 5733 5733 5733 5734 5734 5735 5735 5735 5734 5734 5734 5734 5734 5735 5735 5735 5735 5735 5735 5735 5736 5736 5736 5736 5736 5736 5737 5737 5738 5738 5738 5739 5739 5739 5739 5739 5740 5740 5741 5741 5742 5743 5743 5744 5744 5745 5746 5746 5746 5747 5748 5748 5749 5749 5750 5750 5750 5751
5720 5720 5720 5720 5721 5721 5721 5721 5721 5721 5722 5723 5723 5723 5724 5725 5725 5724 5724 5725 5726 5726 5727 5728 5729 5730 5730 5730 5731 5731 5731 5732 5733 5733 5733 5733 5733 5732 5732 5732 5733 5733 5733 5733 5733 5733 5733 5734 5734 5734 5734 5734 5734 5735 5735 5735 5736 5736 5737 5737 5737 5738 5738 5738 5738 5739 5739 5740 5740 5741 5742 5742 5742 5743 5743 5744 5744 5745 5745 5746 5746 5747 5747 5747 5748
5716 5717 5717 5718 5718 5719 5719 5719 5719 5719 5719 5720 5720 5720 5721 5722 5722 5721 5722 5722 5723 5723 5724 5725 5726 5727 5727 5728 5728 5728 5729 5730 5731 5731 5731 5731 5731 5730 5730 5730 5731 5731 5731 5731 5731 5731 5731 5732 5732 5732 5732 5733 5733 5733 5733 5733 5734 5734 5735 5735 5736 5736 5736 5736 5737 5737 5737 5738 5738 5739 5740 5740 5740 5741 5741 5742 5742 5743 5743 5743 5744 5744 5745 5745 5745
5713 5714 5714 5715 5716 5716 5716 5716 5716 5716 5717 5717 5717 5717 5718 5718 5718 5719 5719 5719 5719 5721 5721 5722 5723 5724 5725 5725 5725 5725 5726 5727 5728 5728 5728 5728 5728 5728 5728 5728 5729 5729 5729 5729 5729 5730 5730 5730 5730 5730 5730 5731 5731 5731 5731 5732 5732 5732 5733 5733 5734 5734 5734 5735 5735 5735 5736 5736 5737 5737 5738 5738 5739 5739 5740 5740 5740 5741 5741 5742 5742 5742 5743 5743 5743
5710 5710 5711 5712 5712 5713 5713 5713 5714 5714 5714 5715 5715 5715 5716 5716 5715 5716 5716 5716 5716 5717 5718 5719 5720 5721 5722 5722 5722 5723 5723 5724 5724 5725 5726 5726 5726 5726 5726 5726 5726 5727 5727 5727 5728 5728 5728 5728 5728 5728 5728 5729 5729 5729 5729 5730 5730 5730 5731 5731 5732 5732 5733 5733 5733 5734 5734 5734 5735 5735 5736 5736 5737 5738 5738 5739 5739 5739 5740 5740 5740 5741 5741 5741 5741
5707 5707 5708 5708 5709 5710 5710 5711 5711 5711 5711 5712 5712 5712 5713 5713 5713 5713 5713 5714 5714 5713 5713 5715 5716 5718 5718 5719 5719 5720 5720 5721 5722 5722 5723 5723 5723 5723 5723 5723 5724 5724 5724 5725 5725 5726 5726 5727 5727 5727 5726 5726 5727 5727 5727 5727 5728 5728 5729 5729 5730 5730 5731 5731 5731 5732 5732 5732 5733 5733 5734 5734 5735 5735 5736 5737 5737 5738 5738 5738 5739 5739 5740 5740 5740
5704 5704 5704 5705 5705 5706 5707 5707 5708 5709 5709 5709 5709 5709 5710 5710 5710 5711 5711 5711 5711 5711 5711 5712 5713 5714 5715 5715 5716 5717 5717 5718 5719 5719 5720 5721 5721 5721 5721 5721 5722 5722 5722 5723 5723 5723 5724 5725 5725 5725 5725 5725 5725 5725 5725 5725 5726 5726 5726 5727 5727 5728 5728 5728 5729 5729 5729 5730 5730 5731 5731 5732 5732 5733 5733 5733 5734 5735 5735 5736 5736 5737 5737 5738 5738
5701 5701 5701 5701 5702 5703 5703 5704 5704 5705 5706 5706 5706 5706 5707 5707 5708 5708 5708 5708 5708 5709 5709 5709 5710 5710 5711 5712 5713 5714 5714 5715 5716 5716 5716 5717 5718 5719 5719 5719 5719 5720 5721 5721 5722 5721 5721 5722 5722 5723 5723 5723 5723 5723 5723 5723 5724 5724 5724 5725 5725 5725 5725 5726 5726 5726 5727 5727 5727 5728 5728 5729 5730 5730 5731 5731 5731 5732 5732 5733 5733 5734 5734 5735 5735
5698 5698 5698 5698 5699 5699 5700 5700 5701 5701 5702 5703 5703 5703 5703 5704 5704 5705 5705 5705 5705 5706 5706 5707 5707 5707 5708 5709 5710 5711 5712 5712 5713 5713 5713 5714 5714 5716 5717 5717 5717 5717 5718 5719 5720 5720 5720 5719 5719 5719 5720 5721 5721 5721 5721 5721 5721 5721 5722 5722 5723 5723 5723 5723 5724 5724 5724 5725 5725 5725 5726 5726 5727 5727 5728 5728 5729 5729 5729 5730 5730 5731 5731 5732 5732
5694 5694 5695 5695 5696 5696 5696 5697 5697 5698 5698 5699 5700 5700 5700 5700 5700 5701 5702 5702 5702 5703 5704 5704 5704 5704 5705 5706 5707 5708 5709 5709 5710 5710 5710 5710 5711 5712 5713 5714 5714 5715 5715 5716 5717 5718 5718 5718 5717 5717 5717 5718 5719 5719 5720 5719 5719 5719 5719 5720 5720 5721 5721 5721 5722 5722 5723 5723 5723 5723 5723 5724 5724 5724 5725 5725 5726 5726 5726 5727 5727 5728 5728 5728 5729
5691 5691 5691 5691 5692 5693 5693 5694 5694 5694 5695 5695 5696 5696 5697 5697 5697 5697 5698 5698 5699 5700 5700 5701 5701 5702 5703 5703 5703 5704 5705 5706 5706 5706 5707 5707 5707 5708 5709 5711 5711 5712 5712 5712 5713 5714 5716 5716 5716 5716 5715 5715 5716 5716 5717 5717 5717 5717 5717 5717 5717 5718 5719 5719 5720 5720 5720 5721 5721 5721 5721 5721 5721 5722 5722 5722 5723 5723 5723 5723 5724 5724 5724 5725 5725
5687 5687 5687 5687 5688 5688 5689 5690 5690 5691 5691 5692 5692 5693 5693 5693 5694 5694 5694 5694 5695 5696 5696 5697 5698 5698 5699 5699 5699 5700 5700 5701 5701 5702 5702 5703 5703 5703 5704 5706 5707 5707 5707 5708 5709 5710 5711 5712 5713 5713 5713 5712 5712 5713 5714 5714 5714 5714 5714 5714 5714 5715 5716 5716 5717 5717 5718 5718 5718 5718 5719 5719 5719 5719 5719 5719 5720 5720 5720 5720 5720 5720 5720 5721 5721
5682 5682 5683 5683 5683 5684 5684 5685 5685 5686 5687 5688 5688 5689 5689 5690 5690 5690 5690 5690 5691 5691 5692 5693 5693 5694 5694 5695 5695 5696 5696 5697 5697 5697 5698 5698 5699 5699 5700 5701 5701 5702 5703 5704 5705 5706 5707 5708 5708 5709 5709 5709 5708 5709 5710 5710 5711 5711 5711 5711 5711 5711 5712 5713 5714 5714 5714 5714 5715 5715 5715 5716 5716 5715 5716 5716 5716 5716 5717 5717 5717 5717 5717 5717 5717
5677 5677 5677 5678 5678 5679 5679 5679 5680 5681 5682 5682 5683 5684 5685 5685 5685 5686 5686 5687 5687 5687 5687 5687 5688 5689 5689 5690 5691 5691 5691 5692 5693 5693 5694 5694 5694 5695 5695 5696 5696 5697 5698 5699 5700 5701 5702 5702 5703 5703 5704 5704 5705 5705 5705 5706 5707 5708 5708 5707 5707 5707 5708 5709 5710 5710 5711 5711 5711 5711 5712 5712 5712 5711 5712 5712 5712 5713 5713 5713 5713 5713 5713 5713 5713
5671 5671 5672 5672 5673 5673 5673 5674 5674 5675 5676 5677 5677 5678 5679 5680 5681 5681 5681 5682 5682 5683 5683 5683 5683 5684 5684 5684 5685 5686 5686 5687 5688 5688 5689 5689 5690 5690 5691 5691 5692 5692 5693 5694 5695 5696 5697 5697 5698 5698 5699 5699 5700 5701 5701 5701 5703 5704 5704 5704 5703 5704 5704 5705 5706 5706 5707 5708 5707 5707 5708 5707 5707 5707 5708 5708 5708 5709 5709 5709 5709 5709 5709 5709 5709
5665 5665 5665 5666 5667 5667 5667 5667 5668 5668 5670 5670 5671 5672 5673 5674 5675 5676 5676 5677 5677 5677 5677 5678 5678 5678 5679 5679 5680 5680 5681 5681 5682 5682 5683 5683 5684 5685 5685 5686 5687 5687 5688 5689 5690 5691 5692 5692 5692 5693 5694 5694 5695 5696 5696 5696 5697 5699 5700 5700 5699 5699 5700 5701 5702 5702 5702 5703 5704 5703 5703 5703 5703 5703 5703 5703 5703 5703 5704 5704 5704 5704 5704 5704 5704
5659 5658 5658 5659 5661 5662 5661 5661 5662 5663 5664 5664 5664 5666 5668 5669 5669 5670 5670 5671 5671 5671 5671 5672 5672 5673 5673 5673 5674 5675 5675 5675 5676 5676 5677 5677 5678 5678 5679 5680 5681 5681 5682 5683 5684 5686 5687 5686 5686 5687 5688 5689 5691 5692 5691 5691 5691 5692 5694 5695 5695 5695 5696 5696 5697 5697 5698 5699 5699 5699 5699 5699 5698 5698 5698 5698 5698 5698 5698 5698 5698 5698 5699 5699 5699
5655 5653 5651 5651 5654 5656 5656 5657 5657 5657 5659 5659 5658 5660 5663 5664 5663 5663 5664 5664 5664 5665 5665 5665 5666 5666 5667 5667 5668 5668 5669 5669 5670 5671 5671 5671 5672 5672 5673 5673 5674 5675 5676 5677 5678 5679 5680 5681 5680 5680 5681 5683 5685 5686 5686 5686 5686 5686 5687 5689 5689 5690 5691 5691 5691 5692 5692 5693 5693 5693 5693 5693 5694 5693 5692 5692 5692 5692 5692 5691 5692 5692 5692 5692 5692
5651 5649 5646 5644 5644 5647 5651 5653 5652 5651 5653 5654 5653 5654 5657 5658 5657 5657 5658 5658 5658 5658 5658 5659 5659 5659 5660 5661 5661 5662 5662 5663 5664 5664 5664 5665 5665 5666 5666 5667 5668 5669 5670 5671 5672 5672 5673 5673 5673 5673 5674 5676 5678 5680 5680 5680 5680 5680 5681 5682 5683 5684 5685 5685 5685 5686 5686 5686 5686 5686 5687 5687 5688 5687 5687 5687 5687 5686 5686 5685 5686 5686 5686 5686 5686
5645 5644 5643 5639 5634 5637 5646 5650 5647 5645 5647 5647 5647 5648 5650 5651 5651 5651 5652 5651 5651 5651 5652 5652 5652 5652 5653 5654 5654 5655 5656 5656 5657 5657 5658 5659 5659 5660 5661 5661 5662 5662 5663 5664 5665 5665 5666 5666 5667 5667 5667 5668 5672 5673 5673 5673 5673 5673 5673 5674 5675 5677 5678 5679 5679 5679 5679 5679 5679 5680 5680 5680 5680 5680 5680 5680 5680 5680 5679 5679 5679 5680 5680 5680 5679
5639 5639 5638 5632 5628 5632 5639 5642 5640 5639 5641 5640 5640 5642 5643 5643 5643 5644 5645 5644 5644 5644 5645 5645 5646 5646 5647 5647 5647 5648 5649 5649 5650 5651 5651 5652 5653 5654 5655 5655 5656 5656 5656 5657 5657 5659 5659 5659 5660 5661 5660 5662 5665 5666 5666 5666 5666 5666 5666 5666 5667 5669 5671 5672 5672 5672 5672 5672 5672 5673 5673 5672 5672 5672 5673 5673 5673 5672 5672 5672 5673 5673 5673 5672 5672
5633 5633 5630 5626 5625 5627 5629 5631 5633 5634 5634 5633 5633 5635 5636 5636 5636 5636 5637 5637 5637 5638 5638 5639 5640 5640 5640 5640 5641 5642 5642 5643 5643 5644 5644 5645 5646 5647 5647 5648 5649 5649 5650 5650 5651 5652 5653 5654 5654 5654 5654 5656 5658 5659 5659 5659 5660 5660 5659 5659 5660 5662 5663 5664 5664 5664 5665 5665 5665 5665 5665 5665 5664 5665 5665 5665 5665 5665 5664 5665 5665 5665 5665 5665 5664
5625 5624 5623 5622 5621 5621 5620 5622 5626 5627 5627 5626 5626 5627 5628 5628 5628 5629 5629 5630 5631 5631 5631 5632 5633 5633 5633 5633 5634 5635 5635 5636 5637 5637 5638 5638 5639 5639 5640 5641 5642 5642 5643 5644 5644 5645 5646 5647 5648 5648 5649 5651 5651 5651 5651 5652 5652 5653 5653 5653 5654 5655 5655 5656 5657 5657 5657 5658 5658 5658 5658 5657 5657 5658 5658 5658 5657 5656 5656 5657 5657 5656 5656 5656 5656
5617 5616 5617 5616 5615 5614 5613 5614 5618 5620 5619 5619 5619 5619 5620 5621 5621 5622 5622 5623 5623 5624 5624 5625 5626 5626 5626 5627 5627 5628 5629 5629 5630 5630 5631 5631 5631 5632 5633 5633 5634 5635 5636 5636 5637 5638 5638 5640 5641 5643 5644 5644 5643 5642 5643 5643 5644 5645 5646 5646 5647 5647 5647 5648 5649 5649 5649 5650 5649 5649 5650 5650 5650 5650 5650 5650 5649 5648 5648 5648 5648 5648 5647 5647 5647
5609 5609 5608 5607 5607 5607 5606 5606 5609 5612 5612 5612 5611 5611 5612 5613 5613 5614 5615 5615 5616 5616 5617 5617 5618 5618 5619 5619 5620 5621 5621 5622 5623 5623 5624 5624 5624 5625 5625 5626 5627 5627 5628 5629 5629 5630 5632 5634 5635 5636 5636 5637 5636 5635 5636 5636 5636 5638 5638 5638 5639 5639 5639 5640 5641 5641 5641 5641 5641 5641 5642 5642 5642 5642 5642 5642 5641 5640 5640 5640 5639 5639 5639 5638 5638
5602 5602 5600 5598 5598 5599 5599 5599 5602 5604 5605 5604 5604 5603 5604 5605 5606 5607 5607 5607 5608 5608 5609 5610 5610 5611 5612 5612 5613 5613 5614 5615 5616 5616 5617 5617 5617 5618 5618 5618 5619 5620 5620 5621 5622 5624 5626 5628 5628 5628 5628 5629 5629 5628 5629 5630 5630 5630 5630 5630 5631 5632 5632 5632 5633 5633 5633 5633 5633 5633 5634 5634 5634 5635 5634 5633 5633 5632 5632 5632 5631 5630 5630 5629 5629
5593 5593 5592 5592 5592 5592 5593 5594 5595 5595 5595 5596 5596 5596 5597 5598 5598 5599 5600 5600 5600 5601 5602 5603 5603 5604 5604 5605 5605 5606 5606 5607 5608 5608 5609 5610 5610 5610 5611 5611 5612 5612 5612 5614 5616 5617 5619 5621 5621 5621 5621 5622 5622 5622 5623 5623 5623 5623 5623 5624 5624 5624 5625 5625 5626 5626 5626 5625 5624 5625 5627 5627 5626 5626 5626 5625 5625 5625 5624 5623 5623 5622 5621 5621 5621
5585 5585 5586 5586 5586 5585 5586 5586 5587 5586 5586 5587 5588 5589 5590 5590 5591 5592 5592 5592 5593 5594 5594 5595 5596 5597 5597 5598 5598 5599 5599 5600 5600 5600 5601 5602 5602 5603 5603 5604 5604 5604 5604 5607 5609 5610 5612 5614 5613 5614 5615 5615 5615 5616 5616 5616 5616 5616 5616 5617 5617 5617 5617 5618 5618 5618 5618 5618 5617 5617 5619 5620 5619 5618 5618 5617 5617 5617 5616 5616 5615 5614 5613 5613 5612
5576 5577 5578 5578 5578 5579 5578 5578 5579 5579 5579 5579 5580 5581 5581 5582 5584 5584 5585 5585 5586 5586 5587 5588 5589 5590 5590 5591 5591 5592 5592 5592 5593 5593 5593 5594 5595 5596 5596 5596 5596 5597 5597 5600 5602 5603 5604 5606 5606 5606 5607 5608 5608 5609 5609 5609 5609 5609 5610 5610 5610 5610 5610 5611 5611 5611 5611 5611 5610 5610 5612 5612 5611 5610 5610 5610 5610 5609 5608 5608 5607 5606 5605 5605 5605
5568 5569 5569 5569 5570 5571 5571 5571 5571 5571 5571 5571 5572 5573 5574 5575 5576 5577 5578 5578 5578 5579 5580 5581 5581 5582 5583 5584 5584 5584 5585 5585 5585 5586 5586 5587 5588 5588 5589 5589 5590 5590 5590 5592 5595 5596 5597 5597 5598 5600 5600 5600 5600 5601 5602 5602 5602 5602 5603 5603 5603 5603 5603 5604 5604 5604 5604 5604 5603 5603 5604 5604 5603 5603 5602 5602 5602 5601 5600 5599 5599 5598 5597 5597 5596
5560 5561 5561 5561 5562 5564 5564 5563 5563 5562 5562 5563 5564 5565 5566 5567 5569 5570 5570 5571 5571 5571 5572 5573 5574 5575 5575 5576 5577 5577 5578 5578 5578 5579 5580 5581 5581 5582 5583 5584 5584 5584 5583 5584 5588 5590 5590 5590 5591 5592 5593 5593 5593 5594 5595 5595 5596 5596 5596 5596 5597 5597 5597 5597 5597 5598 5598 5597 5597 5596 5596 5596 5595 5595 5595 5595 5594 5593 5592 5591 5590 5590 5589 5588 5587
5552 5552 5552 5553 5554 5554 5554 5554 5554 5554 5555 5555 5556 5557 5558 5560 5561 5562 5562 5562 5563 5564 5564 5565 5566 5567 5568 5569 5569 5570 5571 5571 5571 5572 5573 5573 5573 5575 5577 5577 5577 5577 5578 5579 5581 5583 5583 5583 5584 5585 5585 5586 5587 5587 5588 5588 5589 5589 5590 5590 5591 5591 5591 5591 5591 5591 5591 5591 5590 5590 5589 5589 5588 5588 5588 5587 5586 5585 5584 5583 5582 5581 5580 5579 5579
5545 5544 5544 5543 5544 5545 5545 5546 5546 5547 5548 5548 5548 5549 5550 5551 5552 5553 5553 5554 5555 5555 5556 5557 5558 5559 5560 5561 5562 5563 5563 5564 5564 5565 5566 5566 5567 5569 5571 5571 5571 5571 5572 5573 5575 5577 5577 5577 5577 5578 5579 5579 5580 5581 5582 5582 5583 5583 5583 5584 5584 5585 5585 5585 5585 5585 5585 5584 5584 5583 5583 5582 5582 5581 5581 5580 5579 5578 5577 5575 5574 5573 5572 5571 5570
5536 5536 5536 5536 5536 5537 5537 5538 5539 5539 5538 5539 5539 5540 5542 5543 5543 5544 5544 5545 5546 5547 5548 5549 5551 5552 5552 5554 5555 5555 5556 5556 5557 5558 5559 5560 5561 5563 5564 5564 5564 5565 5566 5567 5568 5570 5570 5571 5571 5572 5572 5573 5574 5575 5575 5576 5576 5577 5577 5578 5578 5578 5579 5579 5579 5578 5578 5578 5578 5577 5577 5576 5576 5575 5574 5573 5572 5571 5570 5568 5567 5565 5564 5563 5562
5528 5528 5528 5528 5529 5529 5529 5529 5530 5530 5529 5529 5531 5532 5533 5534 5535 5536 5536 5536 5537 5538 5539 5541 5543 5544 5545 5546 5546 5547 5548 5548 5550 5552 5553 5553 5555 5556 5557 5557 5558 5559 5560 5561 5562 5563 5564 5565 5565 5566 5566 5567 5568 5569 5569 5569 5570 5571 5571 5572 5572 5572 5572 5572 5572 5572 5572 5572 5571 5571 5571 5570 5569 5568 5567 5566 5565 5564 5563 5561 5560 5558 5557 5556 5554
5519 5519 5520 5519 5520 5520 5520 5521 5521 5521 5520 5521 5523 5524 5525 5526 5527 5528 5528 5528 5529 5530 5531 5533 5534 5536 5537 5538 5538 5539 5540 5541 5543 5545 5546 5546 5548 5549 5550 5550 5552 5553 5554 5555 5555 5557 5558 5558 5558 5559 5560 5561 5561 5562 5563 5563 5564 5565 5565 5565 5565 5566 5566 5566 5566 5566 5566 5566 5566 5565 5565 5564 5563 5562 5561 5560 5559 5557 5556 5554 5552 5551 5549 5547 5545
5510 5510 5510 5510 5511 5511 5512 5512 5512 5512 5512 5514 5515 5516 5517 5518 5518 5519 5519 5520 5520 5521 5522 5524 5526 5527 5528 5529 5530 5531 5532 5534 5536 5538 5539 5540 5540 5541 5542 5544 5545 5546 5547 5548 5549 5550 5551 5551 5552 5553 5554 5555 5555 5556 5557 5558 5558 5559 5559 5560 5560 5560 5560 5560 5561 5561 5561 5561 5561 5561 5560 5559 5558 5557 5556 5554 5552 5550 5548 5546 5544 5542 5540 5538 5536